User: anonymous   Login
Location: Fremont
(37.5480°N, 121.9880°W)
Time: 20:21:22
(UTC-08:00)
Language:

Cosmos 1844 Rocket - Orbit

View from above orbital plane
View from above orbital plane
View from above satellite
View from above satellite

Ground track
Ground track

The orbit data is extracted from the following two-line orbital elements,

1 17974U 87041B   17348.19478399 -.00000247  00000-0 -98364-4 0  9990
2 17974  71.0086 250.5833 0011961 124.4683  31.6467 14.17236527582183
Epoch (UTC): 14 December 2017 04:40:29
Eccentricity: 0.0011961
inclination: 71.0086°
perigee height: 826 km
apogee height: 843 km
right ascension of ascending node: 250.5833°
argument of perigee: 124.4683°
revolutions per day: 14.17236527
mean anomaly at epoch: 31.6467°
orbit number at epoch: 58218

The dashed part of the orbit path shows where the satellite is in the earth's shadow,  

DLR